Regional Weather Roundup
Issued by NWS Goodland, KS

Home | Current Version | Previous Version | Graphics & Text | Print | Product List | Glossary On
Versions: 1 2 3 4 5 6 7 8 9 10 11 12 13 14 15 16 17 18 19 20 21 22 23 24 25 26 27 28 29 30 31 32 33 34 35 36 37 38 39 40 41 42 43 44 45 46 47 48 49 50
000
ASUS43 KGLD 292359
RWRGLD

GOODLAND FORECAST AREA HOURLY WEATHER ROUNDUP
NATIONAL WEATHER SERVICE GOODLAND KS
600 PM MDT MON JUN 29 2015

...OFFICIAL OBSERVATIONS...

CITY           SKY/WX    TMP DP  RH WIND       PRES   REMARKS
GOODLAND KS    LGT RAIN  85  55  35 S14       30.09R
HILL CITY KS   SUNNY     96  51  21 NE9       29.97F
IMPERIAL NEB   SUNNY     90  55  30 VRB5      30.05F
MCCOOK NEB     SUNNY     93  53  25 N5        30.00S
AKRON CO       PTSUNNY   86  51  29 NW5       30.16S
BURLINGTON CO  MOSUNNY   82  54  37 SE13      30.13R
LIMON CO       MOSUNNY   73  57  57 SE9       30.21S
$$

...UNOFFICIAL OBSERVATIONS...

CITY           SKY/WX    TMP DP  RH WIND       PRES   REMARKS
COLBY KS       SUNNY     90  55  31 S9        30.06S
GOVE KS          N/A     88  32  13 MISG        N/A
NORTON KS      SUNNY     93  48  21 N7        29.98S
SHARON SPRINGS   N/A     84  56  37 S12         N/A
KIT CARSON CO    N/A     89  53  29 MISG        N/A
$$


USA.gov is the U.S. government's official web portal to all federal, state and local government web resources and services.